Redmond, OR

7:16 AM PDT on March 28, 2017 (GMT -0700)
Roberts Field Airport

Weather History for KRDM - December, 2013

Change the Weather History Date:

Saturday, December 7, 2013

  Actual Average Record
Temperature  
Mean Temperature -7 °F 31 °F  
Max Temperature 9 °F 41 °F 58 °F (1975)
Min Temperature -24 °F 21 °F -24 °F (2013)
Degree Days  
Heating Degree Days 72 34  
Month to date heating degree days 324 234  
Since 1 July heating degree days 2110 2008  
Cooling Degree Days 0 0  
Month to date cooling degree days 0 0  
Year to date cooling degree days 350 222  
Moisture  
Dew Point -3 °F    
Average Humidity 76    
Maximum Humidity 91    
Minimum Humidity 60    
Precipitation  
Precipitation T in 0.04 in 0.20 in (1952)
Month to date precipitation 0.30 0.28  
Year to date precipitation 4.73 8.02  
Sea Level Pressure  
Sea Level Pressure 30.19 in    
Wind  
Wind Speed 9 mph (NNW)    
Max Wind Speed 20 mph    
Max Gust Speed 24 mph    
Visibility 6 miles    
Events Snow    
T = Trace of Precipitation, MM = Missing Value Source: NWS Daily Summary

Daily Weather History Graph

Daily Weather History Graph

Search for Another Location

Airport or City:

Trip Planner

Search our weather history database for the weather conditions in past years. The results will help you decide how hot, cold, wet, or windy it might be!

Date:

Astronomy

Dec. 07, 2013 Rise Set
Actual Time 7:26 AM PST 4:25 PM PST
Civil Twilight 6:53 AM PST 4:58 PM PST
Nautical Twilight 6:17 AM PST 5:35 PM PST
Astronomical Twilight 5:42 AM PST 6:10 PM PST
Moon 11:07 AM PST (12/7) 10:22 PM PST (12/7)
Length of Visible Light 10h 04m
Length of Day
8h 58m
Waxing Crescent, 30% of the Moon is Illuminated
Dec 7
Waxing Crescent
Dec 9
First Quarter
Dec 17
Full
Dec 25
Last Quarter
Jan 1
New

Hourly Weather History & Observations

Time (PST) Temp. Windchill Dew Point Humidity Pressure Visibility Wind Dir Wind Speed Gust Speed Precip Events Conditions
12:12 AM 9.0 °F -6.6 °F 6.1 °F 88% 29.90 in 1.8 mi NW 12.7 mph - 0.00 in Snow Light Snow
12:47 AM 9.0 °F -7.3 °F 6.1 °F 88% 29.90 in 2.0 mi NNW 13.8 mph - 0.00 in Snow Light Snow
12:54 AM 8.6 °F -7.0 °F 6.8 °F 92% 29.90 in 1.8 mi NNW 12.7 mph - 0.00 in Snow Light Snow
12:56 AM 8.1 °F -8.4 °F 6.1 °F 92% 30.05 in 1.8 mi NNW 13.8 mph - 0.00 in Snow Light Snow
1:05 AM 8.1 °F -7.7 °F 6.1 °F 92% 29.91 in 2.0 mi NNW 12.7 mph - 0.00 in Snow Light Snow
1:56 AM 8.1 °F -8.4 °F 5.0 °F 87% 30.06 in 2.0 mi NNW 13.8 mph - 0.00 in Snow Light Snow
2:10 AM 8.1 °F -9.0 °F 5.0 °F 87% 29.92 in 1.5 mi NNW 15.0 mph - 0.00 in Snow Light Snow
2:25 AM 7.0 °F -9.1 °F 5.0 °F 92% 29.93 in 2.0 mi NNW 12.7 mph 20.7 mph 0.00 in Snow Light Snow
2:56 AM 7.0 °F -9.1 °F 3.9 °F 87% 30.09 in 2.0 mi NNW 12.7 mph - 0.00 in Snow Light Snow
3:38 AM 6.1 °F -11.6 °F 3.0 °F 87% 29.95 in 1.8 mi NNW 15.0 mph - 0.00 in Snow Light Snow
3:49 AM 6.1 °F -11.6 °F 3.0 °F 87% 29.95 in 2.0 mi NNW 15.0 mph - 0.00 in Snow Light Snow
3:56 AM 6.1 °F -10.9 °F 3.0 °F 87% 30.11 in 2.0 mi NNW 13.8 mph - 0.00 in Snow Light Snow
4:36 AM 5.0 °F -13.6 °F 1.9 °F 87% 29.97 in 3.0 mi NNW 16.1 mph - 0.00 in Snow Light Snow
4:56 AM 5.0 °F -13.0 °F 1.9 °F 87% 30.14 in 3.0 mi NNW 15.0 mph - 0.00 in Snow Light Snow
5:07 AM 5.0 °F -13.6 °F 1.9 °F 87% 29.98 in 2.5 mi NNW 16.1 mph 24.2 mph 0.00 in Snow Light Snow
5:16 AM 5.0 °F -13.6 °F 1.0 °F 84% 29.99 in 3.0 mi NNW 16.1 mph - 0.00 in Snow Light Snow
5:56 AM 3.9 °F -14.3 °F -0.0 °F 84% 30.17 in 6.0 mi NNW 15.0 mph 21.9 mph 0.00 in Snow Light Snow
6:56 AM 3.0 °F -17.3 °F -0.0 °F 87% 30.20 in 8.0 mi NNW 18.4 mph - 0.00 in   Overcast
7:56 AM 3.0 °F -13.3 °F -0.9 °F 84% 30.24 in 5.0 mi NNW 11.5 mph - 0.00 in   Overcast
8:56 AM 3.0 °F -14.8 °F -2.0 °F 80% 30.28 in 10.0 mi NNW 13.8 mph - N/A   Scattered Clouds
9:34 AM 3.9 °F -15.6 °F -2.9 °F 73% 30.12 in 7.0 mi NNW 17.3 mph - N/A   Scattered Clouds
9:56 AM 3.9 °F -14.3 °F -2.9 °F 73% 30.31 in 6.0 mi NW 15.0 mph - N/A   Haze
10:56 AM 5.0 °F -10.8 °F -4.0 °F 66% 30.32 in 10.0 mi NNW 11.5 mph - N/A   Scattered Clouds
11:56 AM 6.1 °F -7.8 °F -5.1 °F 60% 30.31 in 10.0 mi NNW 9.2 mph - N/A   Clear
12:56 PM 6.1 °F -9.5 °F -5.1 °F 60% 30.32 in 10.0 mi NNW 11.5 mph - N/A   Clear
1:56 PM 6.1 °F -8.7 °F -5.1 °F 60% 30.33 in 10.0 mi NNW 10.4 mph - N/A   Clear
2:56 PM 6.1 °F -7.8 °F -6.0 °F 58% 30.34 in 10.0 mi NNW 9.2 mph - N/A   Clear
3:56 PM 3.9 °F -3.4 °F -6.0 °F 64% 30.37 in 10.0 mi NNW 3.5 mph - N/A   Clear
4:56 PM -6.0 °F - -9.9 °F 83% 30.41 in 10.0 mi Calm Calm - N/A   Clear
5:56 PM -11.9 °F -21.5 °F -15.0 °F 86% 30.44 in 10.0 mi South 3.5 mph - N/A   Clear
6:56 PM -11.9 °F -23.8 °F -15.0 °F 86% 30.46 in 10.0 mi South 4.6 mph - N/A   Clear
7:56 PM -14.1 °F -23.9 °F -18.0 °F 82% 30.46 in 10.0 mi SSE 3.5 mph - N/A   Clear
8:56 PM -13.0 °F -22.7 °F -17.0 °F 82% 30.47 in 10.0 mi ESE 3.5 mph - N/A   Clear
9:56 PM -14.1 °F -23.9 °F -18.0 °F 82% 30.48 in 10.0 mi ESE 3.5 mph - N/A   Clear
10:56 PM -16.1 °F -26.2 °F -20.9 °F 79% 30.48 in 10.0 mi ESE 3.5 mph - N/A   Clear
11:56 PM -18.0 °F -33.0 °F -22.0 °F 82% 30.49 in 10.0 mi SE 5.8 mph - N/A   Clear